Wautoma, WI

7:25 PM CDT on September 24, 2016 (GMT -0500)
Wautoma

Weather History for KY50 - March, 2014

Change the Weather History Date:

Wednesday, March 12, 2014

  Actual Average (KPCZ) Record (KPCZ)
Temperature  
Mean Temperature 24 °F -  
Max Temperature 32 °F 38 °F 72 °F (2016)
Min Temperature 11 °F 20 °F -2 °F (1960)
Degree Days  
Heating Degree Days 42    
Moisture  
Dew Point 13 °F    
Average Humidity 63    
Maximum Humidity 80    
Minimum Humidity 32    
Precipitation  
Precipitation 0.00 in - - ()
Sea Level Pressure  
Sea Level Pressure 29.99 in    
Wind  
Wind Speed 9 mph (NNE)    
Max Wind Speed 15 mph    
Max Gust Speed 21 mph    
Visibility 8 miles    
Events Snow    
Averages and records for this station are not official NWS values.
T = Trace of Precipitation, MM = Missing Value Source: NWS Daily Summary

Daily Weather History Graph

Daily Weather History Graph

Search for Another Location

Airport or City:

Trip Planner

Search our weather history database for the weather conditions in past years. The results will help you decide how hot, cold, wet, or windy it might be!

Date:

Astronomy

Mar. 12, 2014 Rise Set
Actual Time 7:14 AM CDT 6:59 PM CDT
Civil Twilight 6:46 AM CDT 7:28 PM CDT
Nautical Twilight 6:12 AM CDT 8:02 PM CDT
Astronomical Twilight 5:38 AM CDT 8:36 PM CDT
Moon 3:24 PM CDT (3/12) 4:52 AM CDT (3/12)
Length of Visible Light 12h 42m
Length of Day
11h 44m
Waxing Gibbous, 85% of the Moon is Illuminated
Mar 12
Waxing Gibbous
Mar 16
Full
Mar 23
Last Quarter
Mar 30
New
Apr 7
First Quarter

Hourly Weather History & Observations

Time (CDT) Temp. Windchill Dew Point Humidity Pressure Visibility Wind Dir Wind Speed Gust Speed Precip Events Conditions
12:27 AM 33.8 °F 26.4 °F 26.6 °F 75% 29.85 in 10.0 mi ENE 9.2 mph - N/A   Overcast
12:56 AM 32.9 °F 27.5 °F 27.1 °F 79% 29.86 in 10.0 mi ENE 5.8 mph - N/A   Overcast
1:56 AM 32.9 °F 25.9 °F 26.1 °F 76% 29.88 in 10.0 mi NE 8.1 mph - N/A   Overcast
2:56 AM 31.1 °F 21.9 °F 24.1 °F 75% 29.87 in 10.0 mi ENE 11.5 mph - N/A   Overcast
3:56 AM 29.1 °F 18.9 °F 21.0 °F 72% 29.87 in 10.0 mi ENE 12.7 mph - N/A   Overcast
4:56 AM 28.0 °F 18.1 °F 20.1 °F 72% 29.89 in 9.0 mi ENE 11.5 mph - 0.00 in Snow Light Snow
5:56 AM 27.1 °F 17.5 °F 20.1 °F 75% 29.92 in 8.0 mi ENE 10.4 mph - 0.00 in Snow Light Snow
6:07 AM 26.6 °F 16.2 °F 21.2 °F 80% 29.90 in 5.0 mi NE 11.5 mph - 0.00 in Snow Light Snow
6:56 AM 24.8 °F 14.0 °F 17.6 °F 74% 29.93 in 10.0 mi NNE 11.5 mph - N/A   Overcast
7:08 AM 24.8 °F 12.9 °F 17.6 °F 74% 29.94 in 10.0 mi NE 13.8 mph - N/A   Overcast
7:18 AM 24.8 °F 12.4 °F 17.6 °F 74% 29.94 in 10.0 mi NE 15.0 mph - N/A   Overcast
7:56 AM 23.0 °F 11.7 °F 16.2 °F 75% 29.97 in 5.0 mi NNE 11.5 mph 20.7 mph 0.00 in Snow Light Snow
8:03 AM 23.0 °F 11.1 °F 15.8 °F 74% 29.95 in 4.0 mi NNE 12.7 mph 20.7 mph 0.00 in Snow Light Snow
8:29 AM 23.0 °F 13.9 °F 17.6 °F 80% 29.97 in 2.0 mi NNE 8.1 mph - 0.00 in Snow Light Snow
8:37 AM 23.0 °F 13.9 °F 17.6 °F 80% 29.97 in 2.5 mi North 8.1 mph - 0.00 in Snow Light Snow
8:43 AM 23.0 °F 13.1 °F 15.8 °F 74% 29.97 in 3.0 mi NNE 9.2 mph - 0.00 in Snow Light Snow
8:56 AM 23.0 °F 13.1 °F 16.2 °F 75% 30.00 in 3.0 mi NNE 9.2 mph - 0.00 in   Overcast
9:03 AM 23.0 °F 13.1 °F 15.8 °F 74% 29.98 in 2.5 mi NNE 9.2 mph - 0.00 in Snow Light Snow
9:08 AM 21.2 °F 10.9 °F 15.8 °F 80% 29.98 in 3.0 mi NNE 9.2 mph - 0.00 in Snow Light Snow
9:19 AM 23.0 °F 12.4 °F 15.8 °F 74% 29.98 in 5.0 mi NNE 10.4 mph - 0.00 in   Overcast
9:56 AM 24.8 °F 15.3 °F 12.2 °F 59% 29.99 in 10.0 mi ENE 9.2 mph - N/A   Mostly Cloudy
10:10 AM 24.8 °F 13.4 °F 10.4 °F 54% 29.99 in 10.0 mi ENE 12.7 mph - N/A   Overcast
10:33 AM 24.8 °F 14.0 °F 10.4 °F 54% 30.00 in 10.0 mi NNE 11.5 mph 16.1 mph N/A   Overcast
10:41 AM 24.8 °F 16.1 °F 10.4 °F 54% 30.00 in 10.0 mi NNE 8.1 mph - N/A   Overcast
10:49 AM 24.8 °F 16.9 °F 10.4 °F 54% 30.01 in 10.0 mi NNE 6.9 mph - N/A   Overcast
10:56 AM 24.1 °F 13.1 °F 10.0 °F 55% 30.03 in 10.0 mi NE 11.5 mph - N/A   Overcast
11:56 AM 25.2 °F 15.7 °F 9.1 °F 51% 30.04 in 10.0 mi North 9.2 mph - N/A   Mostly Cloudy
12:56 PM 25.2 °F 15.1 °F 8.1 °F 48% 30.04 in 10.0 mi North 10.4 mph - N/A   Mostly Cloudy
1:56 PM 25.2 °F 14.4 °F 5.0 °F 42% 30.04 in 10.0 mi WNW 11.5 mph - N/A   Partly Cloudy
2:56 PM 25.2 °F 16.5 °F 2.1 °F 37% 30.04 in 10.0 mi NW 8.1 mph - N/A   Clear
3:56 PM 26.1 °F 16.2 °F 0.1 °F 33% 30.06 in 10.0 mi NNW 10.4 mph 16.1 mph N/A   Clear
4:56 PM 25.2 °F 16.5 °F -0.9 °F 32% 30.07 in 10.0 mi North 8.1 mph - N/A   Clear
5:56 PM 25.2 °F 17.3 °F -0.9 °F 32% 30.08 in 10.0 mi Variable 6.9 mph - N/A   Clear
6:56 PM 23.0 °F 14.7 °F 3.0 °F 42% 30.10 in 10.0 mi NW 6.9 mph - N/A   Clear
7:56 PM 18.1 °F 12.9 °F 3.0 °F 52% 30.11 in 10.0 mi WNW 3.5 mph - N/A   Clear
8:56 PM 17.1 °F 10.0 °F 3.0 °F 54% 30.12 in 10.0 mi NW 4.6 mph - N/A   Clear
9:56 PM 16.2 °F 9.0 °F 3.0 °F 56% 30.13 in 10.0 mi East 4.6 mph - N/A   Clear
10:56 PM 14.0 °F 8.2 °F 5.0 °F 67% 30.13 in 10.0 mi ESE 3.5 mph - N/A   Clear
11:56 PM 11.1 °F - 5.0 °F 76% 30.12 in 10.0 mi Calm Calm - N/A   Clear